FW2638 Weather Reports


time (UTC)temp
C
wind
direction
speed
KPH
gust
KPH
rain 1hr
cm
rain 24hr
cm
rain mn
cm
humidity
%
barometer
mb
20260508074717 11 164 6.4 14.5 0.00 0.00 0.00 79 993.1
20260508073603 11 168 6.4 16.1 0.00 0.00 0.00 80 992.9
20260508072703 10 178 4.8 12.9 0.00 0.00 0.00 81 993.0
20260508071803 10 183 4.8 9.7 0.00 0.00 0.00 81 992.9
20260508070903 10 184 3.2 11.3 0.00 0.00 0.00 81 992.9
20260508070003 10 184 3.2 8.0 0.00 0.00 0.00 83 992.8
20260508065403 10 184 3.2 8.0 0.00 0.00 0.00 83 992.8
20260508064503 10 184 4.8 9.7 0.00 0.00 0.00 83 992.7
20260508063603 10 185 4.8 11.3 0.00 0.00 0.00 83 992.7
20260508062703 9 186 4.8 12.9 0.00 0.00 0.00 84 992.5
20260508061803 9 187 4.8 11.3 0.00 0.00 0.00 85 992.4
20260508060903 9 189 4.8 12.9 0.00 0.00 0.00 86 992.4
20260508060003 9 189 3.2 9.7 0.00 0.00 0.00 86 992.5
20260508055403 9 189 3.2 9.7 0.00 0.00 0.00 86 992.3
20260508054716 9 190 3.2 9.7 0.00 0.00 0.00 86 992.3
20260508053603 9 190 3.2 8.0 0.00 0.00 0.00 86 992.2
20260508052917 9 190 3.2 6.4 0.00 0.00 0.00 86 992.1
20260508052016 9 190 3.2 6.4 0.00 0.00 0.00 86 992.1
20260508050903 9 190 3.2 8.0 0.00 0.00 0.00 87 992.0
20260508050003 9 190 3.2 8.0 0.00 0.00 0.00 86 992.0
20260508045403 9 191 4.8 11.3 0.00 0.00 0.00 87 991.9
20260508044503 9 194 3.2 9.7 0.00 0.00 0.00 87 992.0
20260508043603 9 194 3.2 8.0 0.00 0.00 0.00 87 991.9
20260508042703 9 195 3.2 8.0 0.00 0.00 0.00 87 992.0
20260508041803 9 196 3.2 9.7 0.00 0.00 0.00 87 992.0
20260508041118 9 196 3.2 6.4 0.00 0.00 0.00 87 991.9
20260508040003 9 196 3.2 9.7 0.00 0.00 0.00 87 991.8
20260508035403 8 196 1.6 8.0 0.00 0.00 0.00 87 991.8
20260508034503 9 196 4.8 9.7 0.00 0.00 0.00 87 991.9
20260508033817 9 198 3.2 11.3 0.00 0.00 0.00 87 991.8
20260508032703 9 200 3.2 8.0 0.00 0.00 0.00 87 991.7
20260508031803 9 200 1.6 6.4 0.00 0.00 0.00 86 991.7
20260508030903 9 200 3.2 6.4 0.00 0.00 0.00 86 991.7
20260508030216 8 200 3.2 8.0 0.00 0.00 0.00 87 991.7
20260508025403 8 200 1.6 8.0 0.00 0.00 0.00 87 991.8
20260508024503 8 200 3.2 6.4 0.00 0.00 0.00 87 991.9
20260508023603 8 200 3.2 9.7 0.00 0.00 0.00 88 991.8
20260508022703 8 202 0.0 9.7 0.00 0.00 0.00 88 991.9
20260508021803 7 203 0.0 3.2 0.00 0.00 0.00 87 991.7
20260508021117 7 203 0.0 3.2 0.00 0.00 0.00 87 991.6
20260508020003 8 203 0.0 1.6 0.00 0.00 0.00 86 991.6
20260508015618 8 0 0.0 0.0 0.00 0.00 0.00 86 991.7
20260508014717 8 203 0.0 1.6 0.00 0.00 0.00 85 991.5
20260508013603 8 0 0.0 0.0 0.00 0.00 0.00 85 991.8
20260508012703 9 203 0.0 1.6 0.00 0.00 0.00 84 991.8
20260508011803 9 203 0.0 3.2 0.00 0.00 0.00 84 991.8
20260508010903 9 0 0.0 0.0 0.00 0.00 0.00 84 991.8
20260508010218 9 203 1.6 4.8 0.00 0.00 0.00 84 991.8
20260508005617 9 203 1.6 6.4 0.00 0.00 0.00 84 991.7
20260508004503 9 203 0.0 4.8 0.00 0.00 0.00 84 991.8
20260508003603 9 203 0.0 3.2 0.00 0.00 0.00 84 991.7
20260508002703 9 203 0.0 4.8 0.00 0.00 0.00 84 991.8
20260508001803 9 0 0.0 0.0 0.00 0.00 0.00 84 991.8
20260508000903 10 0 0.0 0.0 0.00 0.00 0.00 83 991.9
20260508000003 10 203 1.6 3.2 0.00 0.00 0.00 83 992.0
20260507235403 10 203 1.6 6.4 0.00 0.00 0.00 83 992.0
20260507234718 10 203 0.0 4.8 0.00 0.00 0.00 83 991.9
20260507233603 10 203 0.0 4.8 0.00 0.00 0.00 83 991.9
20260507232703 10 203 1.6 4.8 0.00 0.00 0.00 83 991.9
20260507231803 10 203 1.6 6.4 0.00 0.00 0.00 83 991.9
20260507230903 10 203 1.6 8.0 0.00 0.00 0.00 83 992.0
20260507230003 10 203 1.6 6.4 0.00 0.00 0.00 83 992.0
20260507225403 10 203 1.6 4.8 0.00 0.00 0.00 83 991.9
20260507224503 10 203 1.6 6.4 0.00 0.00 0.00 82 991.9
20260507223817 10 203 1.6 6.4 0.00 0.00 0.00 82 991.8
20260507222703 10 203 1.6 6.4 0.00 0.00 0.00 82 991.8
20260507221803 10 203 1.6 6.4 0.00 0.00 0.00 82 991.8
20260507220903 10 203 1.6 8.0 0.00 0.00 0.00 82 991.8
20260507220003 10 203 1.6 8.0 0.00 0.00 0.00 82 991.8
20260507215403 10 203 1.6 3.2 0.00 0.00 0.00 82 991.8
20260507214717 10 203 1.6 3.2 0.00 0.00 0.00 82 991.9
20260507213603 10 203 1.6 4.8 0.00 0.00 0.00 81 991.8
20260507212703 10 203 1.6 6.4 0.00 0.00 0.00 81 992.0
20260507212018 10 203 1.6 8.0 0.00 0.00 0.00 81 991.9
20260507210903 10 0 0.0 0.0 0.00 0.00 0.00 80 991.8
20260507210218 10 0 0.0 0.0 0.00 0.00 0.00 80 991.7
20260507205403 10 203 1.6 4.8 0.00 0.00 0.00 80 991.7
20260507204503 10 203 3.2 6.4 0.00 0.00 0.00 79 991.6
20260507203603 11 203 3.2 9.7 0.00 0.00 0.00 79 991.5
20260507202703 11 203 3.2 9.7 0.00 0.00 0.00 79 991.4
20260507201803 11 203 1.6 11.3 0.00 0.00 0.00 79 991.4
20260507200903 11 203 1.6 6.4 0.00 0.00 0.00 79 991.3
20260507200003 11 203 3.2 8.0 0.00 0.00 0.00 79 991.1
20260507195403 10 203 3.2 8.0 0.00 0.00 0.00 80 991.2
20260507194503 10 203 3.2 8.0 0.00 0.00 0.00 80 991.2
20260507193818 10 203 3.2 8.0 0.00 0.00 0.00 80 991.2
20260507192929 10 203 3.2 11.3 0.00 0.00 0.00 80 991.1
20260507191803 11 204 3.2 9.7 0.00 0.00 0.00 80 991.0
20260507190903 11 205 3.2 11.3 0.00 0.00 0.00 79 990.9
20260507190004 11 207 3.2 12.9 0.00 0.00 0.00 80 990.8
20260507185403 11 208 1.6 8.0 0.00 0.00 0.00 80 990.8
20260507184503 10 208 1.6 4.8 0.00 0.00 0.00 80 990.7
20260507183603 11 209 4.8 9.7 0.00 0.00 0.00 80 990.7
20260507182703 11 209 4.8 11.3 0.00 0.00 0.00 79 990.9
20260507181803 11 209 6.4 9.7 0.00 0.00 0.00 79 990.9
20260507180903 11 209 6.4 12.9 0.00 0.00 0.00 78 991.0
20260507180003 11 209 4.8 12.9 0.00 0.00 0.00 77 990.9
20260507175403 11 209 4.8 11.3 0.00 0.00 0.00 76 990.8
20260507174503 11 209 6.4 12.9 0.00 0.00 0.00 76 990.8
20260507173603 11 208 6.4 14.5 0.00 0.00 0.00 75 990.8
20260507172917 12 206 8.0 12.9 0.00 0.00 0.00 74 990.8
20260507171803 12 191 6.4 19.3 0.00 0.00 0.00 72 990.7
20260507170903 12 144 3.2 12.9 0.00 0.00 0.00 67 990.8
20260507170003 12 144 3.2 8.0 0.00 0.00 0.00 66 990.8
20260507165403 13 144 1.6 8.0 0.00 0.00 0.00 65 990.8
20260507164718 13 144 3.2 6.4 0.00 0.00 0.00 64 990.7
20260507163603 13 144 3.2 8.0 0.00 0.00 0.00 62 990.6
20260507162703 13 144 3.2 8.0 0.00 0.00 0.00 61 990.6
20260507161803 13 144 4.8 11.3 0.00 0.00 0.00 60 990.5
20260507160903 13 143 3.2 11.3 0.00 0.00 0.00 61 990.6
20260507160014 13 143 3.2 11.3 0.00 0.00 0.00 60 990.7
20260507155403 13 143 3.2 8.0 0.00 0.00 0.00 61 990.7
20260507154503 13 143 4.8 11.3 0.00 0.00 0.00 61 990.7
20260507153603 13 143 4.8 12.9 0.00 0.00 0.00 59 990.8
20260507152703 13 146 6.4 16.1 0.00 0.00 0.00 58 991.0
20260507151803 13 148 6.4 16.1 0.00 0.00 0.00 58 990.8
20260507150903 13 140 6.4 16.1 0.00 0.00 0.00 58 990.9
20260507150003 13 160 4.8 19.3 0.00 0.00 0.00 58 990.9
20260507145403 13 169 4.8 11.3 0.00 0.00 0.00 60 991.0
20260507144503 13 171 6.4 12.9 0.00 0.00 0.00 62 991.0
20260507143603 13 171 6.4 12.9 0.00 0.00 0.00 61 991.1
20260507142918 13 162 6.4 12.9 0.00 0.00 0.00 62 991.3
20260507141803 13 186 6.4 16.1 0.00 0.00 0.00 63 991.4
20260507140903 13 201 6.4 16.1 0.00 0.00 0.00 63 991.4
20260507140003 13 167 6.4 17.7 0.00 0.00 0.00 63 991.6
20260507135403 13 152 6.4 17.7 0.00 0.00 0.00 62 991.7
20260507134503 13 139 6.4 16.1 0.00 0.00 0.00 62 991.5
20260507133603 13 147 9.7 16.1 0.00 0.00 0.00 63 991.7
20260507132703 13 181 9.7 20.9 0.00 0.00 0.00 63 991.8
20260507132017 13 170 8.0 20.9 0.00 0.00 0.00 63 991.7
20260507130903 13 150 8.0 20.9 0.00 0.00 0.00 65 991.5
20260507130003 13 150 8.0 17.7 0.00 0.00 0.00 63 991.7
20260507125617 13 144 8.0 16.1 0.00 0.00 0.00 65 991.8
20260507124503 13 140 6.4 17.7 0.00 0.00 0.00 68 991.8
20260507123603 13 147 6.4 22.5 0.00 0.00 0.00 69 991.9
20260507122917 12 136 6.4 17.7 0.00 0.00 0.00 68 991.8
20260507122018 12 129 6.4 17.7 0.00 0.00 0.00 70 991.8
20260507120903 12 145 6.4 16.1 0.00 0.00 0.00 71 991.9
20260507120003 11 144 6.4 16.1 0.00 0.00 0.00 73 991.9
20260507115616 11 143 6.4 16.1 0.00 0.00 0.00 72 992.1
20260507114503 11 156 6.4 17.7 0.00 0.00 0.00 73 991.9
20260507113603 11 148 6.4 17.7 0.00 0.00 0.00 74 992.0
20260507112703 11 147 6.4 17.7 0.00 0.00 0.00 77 992.1
20260507111803 10 148 6.4 14.5 0.00 0.00 0.00 79 992.2
20260507110903 10 153 6.4 14.5 0.00 0.00 0.00 79 992.1
20260507110003 10 152 6.4 17.7 0.00 0.00 0.00 79 992.1
20260507105403 10 146 8.0 19.3 0.00 0.00 0.00 81 992.3
20260507104503 9 146 6.4 19.3 0.00 0.00 0.00 83 992.3
20260507103603 9 136 6.4 17.7 0.00 0.00 0.00 84 992.4
20260507102703 8 136 8.0 17.7 0.00 0.00 0.00 85 992.4
20260507102017 8 134 6.4 17.7 0.00 0.00 0.00 85 992.4
20260507100903 8 133 6.4 14.5 0.00 0.00 0.00 87 992.4
20260507100218 8 132 6.4 16.1 0.00 0.00 0.00 86 992.3
20260507095618 8 131 6.4 16.1 0.00 0.00 0.00 87 992.3
20260507094503 8 128 6.4 16.1 0.00 0.00 0.00 87 992.2
20260507093603 7 127 6.4 12.9 0.00 0.00 0.00 88 992.2
20260507092703 7 126 4.8 12.9 0.00 0.00 0.00 88 992.1
20260507092017 7 126 6.4 14.5 0.00 0.00 0.00 89 992.0
20260507090903 7 128 8.0 19.3 0.00 0.00 0.00 89 992.2
20260507090004 7 131 6.4 14.5 0.00 0.00 0.00 89 992.2
20260507085403 7 131 8.0 16.1 0.00 0.00 0.00 90 992.1
20260507084503 7 132 6.4 14.5 0.00 0.00 0.00 90 992.1
20260507083603 6 133 6.4 14.5 0.00 0.00 0.00 90 992.2
20260507082703 6 133 6.4 17.7 0.00 0.00 0.00 91 992.2
20260507081803 6 135 6.4 16.1 0.00 0.00 0.00 91 992.2
20260507080903 6 135 8.0 16.1 0.00 0.00 0.00 91 992.2
20260507080017 6 132 8.0 16.1 0.00 0.00 0.00 91 992.1